Location: Newark
(43.5831°N, 21.3381°E)
Time: 03:39:00
(UTC+00:00)

UKube-1 - Visible Passes

Search period start: 28 February 2020 00:00
Search period end: 09 March 2020 00:00
Orbit: 612 x 620 km, 98.5° (Epoch: 27 February)

Date Brightness Start Highest point End Pass type
(mag) Time Alt. Az. Time Alt. Az. Time Alt. Az.
28 Feb ? 02:01:17 10° ENE 02:01:56 10° ENE 02:02:35 10° NE visible
28 Feb ? 03:32:54 10° SSE 03:37:12 88° WSW 03:41:32 10° NNW visible
28 Feb ? 16:54:08 10° N 16:58:22 59° WNW 17:02:34 10° SSW visible
29 Feb ? 02:15:23 10° E 02:17:45 15° ENE 02:20:07 10° NNE visible
29 Feb ? 03:49:00 10° S 03:53:14 59° WSW 03:57:30 10° NNW visible
29 Feb ? 17:10:18 10° N 17:14:19 40° WNW 17:18:19 10° SW visible
01 Mar ? 02:30:26 10° ESE 02:33:36 20° ENE 02:36:46 10° NNE visible
01 Mar ? 04:05:16 10° S 04:09:18 39° W 04:13:22 10° NNW visible
01 Mar ? 17:26:35 10° N 17:30:14 28° WNW 17:33:53 10° SW visible
02 Mar ? 02:45:49 10° SE 02:49:30 28° ENE 02:53:11 10° N visible
02 Mar ? 04:21:45 10° SSW 04:25:24 27° W 04:29:05 10° NW visible
02 Mar ? 17:43:00 10° NNW 17:46:08 20° WNW 17:49:15 10° WSW visible
03 Mar ? 03:01:24 10° SE 03:05:25 41° ENE 03:09:27 10° N visible
03 Mar ? 17:59:40 10° NNW 18:01:59 14° WNW 18:04:16 10° W visible
04 Mar ? 03:17:09 10° SSE 03:21:22 60° ENE 03:25:37 10° N visible
04 Mar ? 18:17:34 10° NW 18:17:47 10° WNW 18:18:00 10° WNW visible
05 Mar ? 03:33:04 10° SSE 03:37:21 89° E 03:41:41 10° NNW visible
05 Mar ? 16:54:16 10° N 16:58:32 61° WNW 17:02:45 10° SSW visible
06 Mar ? 02:15:40 10° E 02:17:55 14° ENE 02:20:11 10° NNE visible
06 Mar ? 03:49:09 10° S 03:53:24 62° W 03:57:39 10° NNW visible
06 Mar ? 17:10:26 10° N 17:14:29 41° WNW 17:18:31 10° SW visible
07 Mar ? 02:30:40 10° ESE 02:33:46 20° ENE 02:36:52 10° NNE visible
07 Mar ? 04:05:24 10° S 04:09:27 41° W 04:13:32 10° NNW visible
07 Mar ? 17:26:42 10° N 17:30:24 29° WNW 17:34:06 10° SW visible
08 Mar ? 02:46:01 10° SE 02:49:39 27° ENE 02:53:17 10° N visible
08 Mar ? 04:21:51 10° SSW 04:25:32 28° W 04:29:16 10° NW visible
08 Mar ? 17:43:05 10° NNW 17:46:17 21° WNW 17:49:29 10° WSW visible
